This is the latest recevied weather packets stored in our database for station/object SQ9RHX-13. If no packets are shown the sender has not sent any weather packets the latest 1 day(s).
| Time | Temp. | Humidity | Pressure | Rain* | Wind** | Luminosity | Snow |
|---|---|---|---|---|---|---|---|
| 1777958402 | 16.11° C | 74% | 1013 hPa | 0 mm | 0 m/s | 62 W/m² | - |
| 1777958104 | 15.56° C | 74% | 1013.2 hPa | 0 mm | 0 m/s | 67 W/m² | - |
| 1777957803 | 15.56° C | 74% | 1013.6 hPa | 0 mm | 0 m/s | 71 W/m² | - |
| 1777957504 | 15.56° C | 75% | 1013.5 hPa | 0 mm | 0 m/s | 80 W/m² | - |
| 1777957204 | 15° C | 76% | 1013.5 hPa | 0 mm | 0 m/s | 78 W/m² | - |
| 1777956903 | 15° C | 78% | 1013.4 hPa | 0 mm | 0 m/s | 72 W/m² | - |
| 1777956605 | 14.44° C | 81% | 1013.5 hPa | 0 mm | 0 m/s | 89 W/m² | - |
| 1777956303 | 13.89° C | 83% | 1013.3 hPa | 0 mm | 0 m/s | 63 W/m² | - |
| 1777956003 | 13.33° C | 84% | 1013.4 hPa | 0 mm | 0 m/s | 49 W/m² | - |
| 1777955702 | 12.78° C | 86% | 1013.4 hPa | 0 mm | 0 m/s | 47 W/m² | - |
| 1777955402 | 12.78° C | 89% | 1013.6 hPa | 0 mm | 0 m/s | 44 W/m² | - |
| 1777955104 | 12.22° C | 90% | 1013.5 hPa | 0 mm | 0 m/s | 40 W/m² | - |
| 1777954805 | 12.22° C | 89% | 1013.6 hPa | 0 mm | 0 m/s | 28 W/m² | - |
| 1777954504 | 11.67° C | 90% | 1013.6 hPa | 0 mm | 0 m/s | 27 W/m² | - |
| 1777954203 | 11.67° C | 90% | 1013.7 hPa | 0 mm | 0 m/s | 26 W/m² | - |
| 1777953903 | 11.67° C | 90% | 1013.5 hPa | 0 mm | 0 m/s | 24 W/m² | - |
| 1777953603 | 11.67° C | 90% | 1013.6 hPa | 0 mm | 0 m/s | 18 W/m² | - |
| 1777953303 | 11.67° C | 90% | 1013.4 hPa | 0 mm | 0 m/s | 15 W/m² | - |
| 1777953003 | 11.67° C | 89% | 1013.5 hPa | 0 mm | 0 m/s | 12 W/m² | - |
| 1777952705 | 11.67° C | 89% | 1013.6 hPa | 0 mm | 0 m/s | 10 W/m² | - |
| 1777952404 | 11.67° C | 89% | 1013.6 hPa | 0 mm | 0 m/s | 8 W/m² | - |
| 1777952103 | 11.67° C | 88% | 1013.5 hPa | 0 mm | 0 m/s | 6 W/m² | - |
| 1777951803 | 11.67° C | 88% | 1013.6 hPa | 0 mm | 0 m/s | 4 W/m² | - |
| 1777951505 | 11.67° C | 88% | 1013.6 hPa | 0 mm | 0 m/s | 3 W/m² | - |
| 1777951205 | 12.22° C | 88% | 1013.6 hPa | 0 mm | 0 m/s | 2 W/m² | - |
* Rain latest hour (hover to see other rain measurements)
** Current wind speed in m/s (hover to see current wind gust speed)